Weather History for Sedona, AZ

Change the Weather History Date:

Tuesday, May 7, 2013

  Actual Average Record
Temperature  
Mean Temperature 59 °F -  
Max Temperature 68 °F 77 °F 82 °F (2011)
Min Temperature 50 °F 46 °F 50 °F (2013)
Degree Days  
Heating Degree Days 6    
Growing Degree Days 9 (Base 50)    
Moisture  
Dew Point 38 °F    
Average Humidity 46    
Maximum Humidity 67    
Minimum Humidity 26    
Precipitation  
Precipitation 0.00 in - - ()
Sea Level Pressure  
Sea Level Pressure 30.01 in    
Wind  
Wind Speed 9 mph (SSW)    
Max Wind Speed 22 mph    
Max Gust Speed 33 mph    
Visibility 10 miles    
Events Rain , Thunderstorm    
Averages and records for this station are not official NWS values.
T = Trace of Precipitation, MM = Missing Value Source: NWS Daily Summary

Daily Weather History Graph

Daily Weather History Graph

Search for Another Location

Airport:

Trip Planner

Search our weather history database for the weather conditions in past years. The results will help you decide how hot, cold, wet, or windy it might be!

Date:

Astronomy

May. 07, 2013 Rise Set
Actual Time 5:30 AM MST 7:17 PM MST
Civil Twilight 5:02 AM MST 7:44 PM MST
Nautical Twilight 4:29 AM MST 8:18 PM MST
Astronomical Twilight 3:54 AM MST 8:53 PM MST
Moon 4:01 AM MST (5/7) 5:24 PM MST (5/7)
Length of Visible Light 14h 42m
Length of Day
13h 47m
Waning Crescent, 5% of the Moon is Illuminated
May 7
Waning Crescent
May 9
New
May 17
First Quarter
May 24
Full
May 31
Last Quarter

Hourly Weather History & Observations

Time (MST) Temp. Dew Point Humidity Pressure Visibility Wind Dir Wind Speed Gust Speed Precip Events Conditions
12:15 AM 59.0 °F 41.0 °F 51% 30.03 in 10.0 mi South 3.5 mph - N/A   Overcast
12:35 AM 59.0 °F 41.0 °F 51% 30.02 in 10.0 mi South 4.6 mph - N/A   Mostly Cloudy
12:55 AM 59.0 °F 41.0 °F 51% 30.02 in 10.0 mi South 3.5 mph - N/A   Mostly Cloudy
1:15 AM 59.0 °F 41.0 °F 51% 30.02 in 10.0 mi SW 5.8 mph - N/A   Mostly Cloudy
1:35 AM 57.2 °F 39.2 °F 51% 30.02 in 10.0 mi Calm Calm - N/A   Overcast
1:55 AM 57.2 °F 39.2 °F 51% 30.01 in 10.0 mi SSW 5.8 mph - N/A   Mostly Cloudy
2:15 AM 57.2 °F 39.2 °F 51% 30.01 in 10.0 mi South 6.9 mph - N/A   Mostly Cloudy
2:35 AM 57.2 °F 39.2 °F 51% 30.02 in 10.0 mi South 5.8 mph - N/A   Overcast
2:55 AM 57.2 °F 39.2 °F 51% 30.01 in 10.0 mi South 8.1 mph - N/A   Overcast
3:15 AM 55.4 °F 39.2 °F 54% 30.02 in 10.0 mi South 8.1 mph - N/A   Overcast
3:35 AM 55.4 °F 39.2 °F 54% 30.02 in 10.0 mi South 5.8 mph - N/A   Overcast
3:55 AM 57.2 °F 39.2 °F 51% 30.02 in 10.0 mi South 5.8 mph - N/A   Overcast
4:15 AM 55.4 °F 39.2 °F 54% 30.02 in 10.0 mi South 4.6 mph - N/A   Overcast
4:35 AM 55.4 °F 39.2 °F 54% 30.02 in 10.0 mi South 6.9 mph - N/A   Overcast
4:55 AM 55.4 °F 41.0 °F 58% 30.02 in 10.0 mi South 6.9 mph - N/A   Overcast
5:15 AM 55.4 °F 41.0 °F 58% 30.03 in 10.0 mi South 8.1 mph 16.1 mph N/A   Overcast
5:35 AM 55.4 °F 42.8 °F 63% 30.03 in 10.0 mi South 10.4 mph - N/A   Overcast
5:55 AM 55.4 °F 42.8 °F 63% 30.04 in 10.0 mi South 8.1 mph - N/A   Overcast
6:15 AM 55.4 °F 42.8 °F 63% 30.04 in 10.0 mi South 10.4 mph - N/A   Overcast
6:35 AM 55.4 °F 42.8 °F 63% 30.05 in 10.0 mi SSW 6.9 mph - N/A   Overcast
6:55 AM 55.4 °F 42.8 °F 63% 30.05 in 10.0 mi South 10.4 mph - N/A   Overcast
7:15 AM 59.0 °F 42.8 °F 55% 30.04 in 10.0 mi South 12.7 mph 17.3 mph N/A   Overcast
7:35 AM 60.8 °F 42.8 °F 52% 30.05 in 10.0 mi South 15.0 mph - N/A   Mostly Cloudy
7:55 AM 59.0 °F 42.8 °F 55% 30.05 in 10.0 mi South 17.3 mph 24.2 mph N/A   Overcast
8:15 AM 62.6 °F 42.8 °F 48% 30.06 in 10.0 mi South 11.5 mph 20.7 mph N/A   Mostly Cloudy
8:35 AM 60.8 °F 42.8 °F 52% 30.06 in 10.0 mi South 11.5 mph 17.3 mph N/A   Scattered Clouds
8:55 AM 60.8 °F 42.8 °F 52% 30.06 in 10.0 mi South 12.7 mph 18.4 mph N/A   Overcast
9:15 AM 60.8 °F 42.8 °F 52% 30.06 in 10.0 mi SSE 10.4 mph 20.7 mph N/A   Overcast
9:35 AM 60.8 °F 41.0 °F 48% 30.06 in 10.0 mi South 12.7 mph 18.4 mph N/A   Overcast
9:55 AM 60.8 °F 41.0 °F 48% 30.05 in 10.0 mi SSE 12.7 mph 18.4 mph N/A   Overcast
10:15 AM 60.8 °F 39.2 °F 45% 30.05 in 10.0 mi South 6.9 mph 19.6 mph N/A   Overcast
10:35 AM 64.4 °F 39.2 °F 40% 30.05 in 10.0 mi SSW 12.7 mph 21.9 mph N/A   Overcast
10:55 AM 64.4 °F 39.2 °F 40% 30.04 in 10.0 mi South 20.7 mph 25.3 mph N/A   Mostly Cloudy
11:15 AM 62.6 °F 39.2 °F 42% 30.05 in 10.0 mi SSW 12.7 mph - N/A   Overcast
11:35 AM 62.6 °F 37.4 °F 39% 30.04 in 10.0 mi SSW 13.8 mph 23.0 mph N/A   Overcast
11:55 AM 62.6 °F 37.4 °F 39% 30.03 in 10.0 mi South 13.8 mph 23.0 mph N/A   Overcast
12:15 PM 66.2 °F 35.6 °F 32% 30.02 in 10.0 mi SW 10.4 mph 19.6 mph N/A   Mostly Cloudy
12:35 PM 68.0 °F 35.6 °F 30% 30.02 in 10.0 mi SSW 6.9 mph 21.9 mph N/A   Scattered Clouds
12:55 PM 68.0 °F 35.6 °F 30% 30.00 in 10.0 mi South 13.8 mph 20.7 mph N/A   Mostly Cloudy
1:15 PM 64.4 °F 35.6 °F 34% 30.00 in 10.0 mi South 11.5 mph 23.0 mph N/A   Overcast
1:35 PM 64.4 °F 33.8 °F 32% 29.99 in 10.0 mi South 16.1 mph 23.0 mph N/A   Overcast
1:55 PM 68.0 °F 35.6 °F 30% 29.99 in 10.0 mi South 15.0 mph 21.9 mph N/A   Mostly Cloudy
2:15 PM 68.0 °F 33.8 °F 28% 29.98 in 10.0 mi South 12.7 mph 27.6 mph N/A   Scattered Clouds
2:35 PM 66.2 °F 32.0 °F 28% 29.98 in 10.0 mi SW 17.3 mph 28.8 mph N/A   Mostly Cloudy
2:55 PM 64.4 °F 32.0 °F 30% 29.97 in 10.0 mi SW 15.0 mph 28.8 mph N/A   Mostly Cloudy
3:15 PM 66.2 °F 33.8 °F 30% 29.96 in 10.0 mi SW 18.4 mph 25.3 mph N/A   Overcast
3:35 PM 64.4 °F 32.0 °F 30% 29.95 in 10.0 mi SW 17.3 mph 28.8 mph N/A   Overcast
3:55 PM 68.0 °F 32.0 °F 26% 29.95 in 10.0 mi WSW 21.9 mph 32.2 mph N/A   Overcast
4:15 PM 66.2 °F 32.0 °F 28% 29.95 in 10.0 mi SW 19.6 mph 31.1 mph N/A   Scattered Clouds
4:35 PM 64.4 °F 30.2 °F 28% 29.95 in 10.0 mi SW 19.6 mph 32.2 mph N/A   Clear
4:55 PM 62.6 °F 28.4 °F 27% 29.95 in 10.0 mi SSW 21.9 mph 33.4 mph N/A   Clear
5:15 PM 64.4 °F 30.2 °F 28% 29.95 in 10.0 mi SSW 20.7 mph 32.2 mph N/A   Scattered Clouds
5:35 PM 62.6 °F 30.2 °F 30% 29.94 in 10.0 mi South 19.6 mph 27.6 mph N/A   Scattered Clouds
5:55 PM 62.6 °F 30.2 °F 30% 29.94 in 10.0 mi SSW 19.6 mph 33.4 mph N/A   Mostly Cloudy
6:15 PM 60.8 °F 32.0 °F 34% 29.94 in 10.0 mi South 20.7 mph 32.2 mph N/A   Scattered Clouds
6:35 PM 60.8 °F 32.0 °F 34% 29.94 in 10.0 mi SSW 17.3 mph 26.5 mph N/A   Scattered Clouds
6:55 PM 60.8 °F 32.0 °F 34% 29.95 in 10.0 mi SSW 20.7 mph 26.5 mph N/A Thunderstorm Mostly Cloudy
7:15 PM 60.8 °F 32.0 °F 34% 29.95 in 10.0 mi SW 18.4 mph 26.5 mph N/A Thunderstorm Thunderstorm
7:35 PM 60.8 °F 32.0 °F 34% 29.97 in 10.0 mi SSW 15.0 mph 20.7 mph N/A Thunderstorm Overcast
7:55 PM 59.0 °F 33.8 °F 39% 29.98 in 10.0 mi West 21.9 mph 27.6 mph N/A Thunderstorm Thunderstorm
8:15 PM 53.6 °F 37.4 °F 54% 29.99 in 10.0 mi West 12.7 mph 27.6 mph N/A Rain Rain
8:35 PM 53.6 °F 41.0 °F 62% 30.00 in 10.0 mi WSW 5.8 mph - N/A   Overcast
8:55 PM 53.6 °F 41.0 °F 62% 30.02 in 10.0 mi NNW 8.1 mph - N/A   Mostly Cloudy
9:15 PM 51.8 °F 41.0 °F 67% 30.03 in 10.0 mi NW 10.4 mph - N/A   Mostly Cloudy
9:35 PM 51.8 °F 41.0 °F 67% 30.03 in 10.0 mi NNW 4.6 mph - N/A   Mostly Cloudy
9:55 PM 51.8 °F 41.0 °F 67% 30.04 in 10.0 mi Calm Calm - N/A   Mostly Cloudy
10:15 PM 51.8 °F 37.4 °F 58% 30.04 in 10.0 mi North 4.6 mph - N/A   Scattered Clouds
10:35 PM 51.8 °F 37.4 °F 58% 30.05 in 10.0 mi North 3.5 mph - N/A   Scattered Clouds
10:55 PM 50.0 °F 37.4 °F 62% 30.05 in 10.0 mi Calm Calm - N/A   Scattered Clouds
11:15 PM 51.8 °F 35.6 °F 54% 30.05 in 10.0 mi Calm Calm - N/A   Scattered Clouds
11:35 PM 51.8 °F 35.6 °F 54% 30.05 in 10.0 mi NW 4.6 mph - N/A   Clear
11:55 PM 50.0 °F 37.4 °F 62% 30.05 in 10.0 mi Calm Calm - N/A   Clear